TimeGMT,TemperatureF,Dew PointF,Humidity,Sea Level PressureIn,VisibilityMPH,Wind Direction,Wind SpeedMPH,Gust SpeedMPH,PrecipitationIn,Events,Conditions,WindDirDegrees,DateUTC
12:50 AM,53.6,51.8,94,30.12,3.7,SSW,20.7,-,N/A,,Light Drizzle,200,2012-11-14 00:50:00
1:50 AM,53.6,51.8,94,30.12,5.0,SSW,21.9,-,N/A,,Overcast,200,2012-11-14 01:50:00
2:50 AM,54,52,90,30.15,7,SSW,20.7,,,,Partly Cloudy,200,2012-11-14 02:50:00
2:50 AM,53.6,51.8,94,30.12,6.2,SSW,20.7,-,N/A,,Overcast,200,2012-11-14 02:50:00
3:50 AM,53.6,51.8,94,30.15,6.2,SSW,20.7,-,N/A,,Overcast,210,2012-11-14 03:50:00
4:50 AM,53.6,51.8,94,30.15,6.2,SSW,21.9,-,N/A,,Overcast,210,2012-11-14 04:50:00
5:20 AM,53.6,51.8,94,30.15,6.2,SSW,18.4,-,N/A,,Overcast,210,2012-11-14 05:20:00
5:50 AM,54,51,86,30.17,9,SSW,18.4,,,,Partly Cloudy,210,2012-11-14 05:50:00
5:50 AM,53.6,51.8,94,30.15,6.2,SSW,18.4,-,N/A,,Overcast,210,2012-11-14 05:50:00
6:20 AM,53.6,51.8,94,30.15,6.2,SSW,19.6,-,N/A,,Overcast,210,2012-11-14 06:20:00
6:50 AM,53.6,50.0,88,30.18,6.2,SSW,18.4,-,N/A,,Mostly Cloudy,210,2012-11-14 06:50:00
7:20 AM,53.6,50.0,88,30.18,6.2,SSW,18.4,-,N/A,,Mostly Cloudy,210,2012-11-14 07:20:00
7:50 AM,53.6,50.0,88,30.18,6.2,SSW,20.7,-,N/A,,Scattered Clouds,210,2012-11-14 07:50:00
8:20 AM,53.6,50.0,88,30.18,6.2,SW,17.3,-,N/A,,Mostly Cloudy,220,2012-11-14 08:20:00
8:50 AM,54,49,79,30.22,11,SW,17.3,,,,Mostly Cloudy,220,2012-11-14 08:50:00
8:50 AM,53.6,50.0,88,30.21,6.2,SW,17.3,-,N/A,,Mostly Cloudy,220,2012-11-14 08:50:00
9:20 AM,53.6,50.0,88,30.21,6.2,SSW,17.3,-,N/A,,Mostly Cloudy,210,2012-11-14 09:20:00
9:50 AM,55.4,48.2,77,30.21,6.2,SSW,18.4,-,N/A,,Mostly Cloudy,210,2012-11-14 09:50:00
10:20 AM,55.4,50.0,82,30.21,6.2,SW,18.4,-,N/A,,Mostly Cloudy,220,2012-11-14 10:20:00
10:50 AM,55.4,50.0,82,30.21,6.2,SSW,13.8,-,N/A,,Mostly Cloudy,210,2012-11-14 10:50:00
11:20 AM,55.4,50.0,82,30.21,6.2,SSW,16.1,-,N/A,,Mostly Cloudy,210,2012-11-14 11:20:00
11:50 AM,55,52,84,30.22,12,SSW,13.8,,,,Mostly Cloudy,200,2012-11-14 11:50:00
11:50 AM,55.4,51.8,88,30.21,6.2,SSW,13.8,-,N/A,,Mostly Cloudy,200,2012-11-14 11:50:00
12:20 PM,55.4,50.0,82,30.21,6.2,SSW,15.0,-,N/A,,Mostly Cloudy,210,2012-11-14 12:20:00
12:50 PM,55.4,50.0,82,30.21,6.2,SSW,13.8,-,N/A,,Mostly Cloudy,210,2012-11-14 12:50:00
1:20 PM,55.4,50.0,82,30.21,6.2,SW,15.0,-,N/A,,Mostly Cloudy,220,2012-11-14 13:20:00
1:50 PM,55.4,50.0,82,30.21,6.2,SW,11.5,-,N/A,,Mostly Cloudy,220,2012-11-14 13:50:00
2:20 PM,55.4,50.0,82,30.21,6.2,SW,13.8,-,N/A,,Mostly Cloudy,220,2012-11-14 14:20:00
2:50 PM,54,50,81,30.22,12,SW,15.0,,,,Mostly Cloudy,220,2012-11-14 14:50:00
2:50 PM,53.6,50.0,88,30.21,6.2,SW,15.0,-,N/A,,Mostly Cloudy,220,2012-11-14 14:50:00
3:20 PM,53.6,50.0,88,30.21,6.2,SW,13.8,-,N/A,,Overcast,230,2012-11-14 15:20:00
3:50 PM,53.6,50.0,88,30.21,6.2,SW,10.4,-,N/A,,Mostly Cloudy,230,2012-11-14 15:50:00
4:20 PM,53.6,50.0,88,30.21,6.2,SW,9.2,-,N/A,,Mostly Cloudy,230,2012-11-14 16:20:00
4:50 PM,53.6,50.0,88,30.21,6.2,WSW,8.1,-,N/A,,Mostly Cloudy,240,2012-11-14 16:50:00
5:20 PM,53.6,50.0,88,30.21,6.2,SW,10.4,-,N/A,,Mostly Cloudy,230,2012-11-14 17:20:00
5:50 PM,53,49,83,30.23,12,SW,10.4,,,,Mostly Cloudy,230,2012-11-14 17:50:00
5:50 PM,53.6,50.0,88,30.21,6.2,SW,10.4,-,N/A,,Mostly Cloudy,230,2012-11-14 17:50:00
6:20 PM,51.8,50.0,94,30.21,6.2,SW,10.4,-,N/A,,Mostly Cloudy,230,2012-11-14 18:20:00
6:50 PM,51.8,50.0,94,30.21,6.2,WSW,8.1,-,N/A,,Scattered Clouds,240,2012-11-14 18:50:00
7:20 PM,51.8,50.0,94,30.24,6.2,SW,5.8,-,N/A,,Mostly Cloudy,230,2012-11-14 19:20:00
7:50 PM,53.6,50.0,88,30.24,6.2,SW,6.9,-,N/A,,Mostly Cloudy,230,2012-11-14 19:50:00
8:20 PM,53.6,50.0,88,30.24,6.2,SW,9.2,-,N/A,,Mostly Cloudy,230,2012-11-14 20:20:00
8:50 PM,53,50,84,30.25,12,SW,9.2,,,,Mostly Cloudy,230,2012-11-14 20:50:00
8:50 PM,53.6,50.0,88,30.24,6.2,SW,9.2,-,N/A,,Mostly Cloudy,230,2012-11-14 20:50:00
9:50 PM,53.6,50.0,88,30.24,6.2,SW,11.5,-,N/A,,Mostly Cloudy,220,2012-11-14 21:50:00
10:50 PM,53.6,50.0,88,30.24,6.2,WSW,8.1,-,N/A,,Mostly Cloudy,240,2012-11-14 22:50:00
11:50 PM,53,50,85,30.25,16,WNW,2.3,,,,Mostly Cloudy,290,2012-11-14 23:50:00
11:50 PM,53.6,50.0,88,30.24,6.2,Variable,2.3,-,N/A,,Mostly Cloudy,0,2012-11-14 23:50:00